[ hide orbit diagram ]
For accurate long-term ephemerides, please instead use our Horizons system.This orbit viewer was implemented using two-body methods, and hence should not be used for determining accurate long-term trajectories (over several years or decades) or planetary encounter circumstances.
Orbital Elements at Epoch 2455190.5 (2009-Dec-25.0) TDB
Reference: JPL 33 (heliocentric ecliptic J2000)
Element | Value | Uncertainty (1-sigma) | Units |
e | .5434881258870633 | 4.24e-07 | |
a | 3.588566469490358 | 1.8216e-07 | au |
q | 1.638223204365888 | 1.5308e-06 | au |
i | 7.27540758303679 | 2.2225e-05 | deg |
node | 330.8930056331217 | 5.7022e-05 | deg |
peri | 162.3119676610465 | 0.00022203 | deg |
M | 48.80917860744405 | 5.6808e-05 | deg |
tp | 2454853.849768404348 (2009-Jan-22.34976840) | 0.00037347 | TDB |
period | 2483.018293529549 6.80 | 0.00018906 5.176e-07 | d yr |
n | .1449848359708494 | 1.1039e-08 | deg/d |
Q | 5.538909734614828 | 2.8116e-07 | au |
|
| | Orbit Determination Parameters
Additional Information
|
[ hide covariance matrix ]
Orbit Covariance (6×6)
|
|
e |
q |
tp |
node |
peri |
i |
e |
1.797742375397852E-13 |
-6.480949506907133E-13 |
-1.103151489919434E-10 |
-5.305829412769944E-12 |
-6.637915405617262E-11 |
-3.493192343494809E-12 |
q |
-6.480949506907133E-13 |
2.343280390941873E-12 |
4.175832046333715E-10 |
1.966121411755384E-11 |
2.503026051955851E-10 |
1.245957326155875E-11 |
tp |
-1.103151489919434E-10 |
4.175832046333715E-10 |
1.394802959868064E-7 |
5.108273263968176E-9 |
8.024968891229399E-8 |
1.661603971632402E-9 |
node |
-5.305829412769944E-12 |
1.966121411755384E-11 |
5.108273263968176E-9 |
3.251536232239817E-9 |
-3.757835137734088E-11 |
-1.85650735678317E-10 |
peri |
-6.637915405617262E-11 |
2.503026051955851E-10 |
8.024968891229399E-8 |
-3.757835137734088E-11 |
4.929680111901225E-8 |
1.299757693991351E-9 |
i |
-3.493192343494809E-12 |
1.245957326155875E-11 |
1.661603971632402E-9 |
-1.85650735678317E-10 |
1.299757693991351E-9 |
4.939430422192464E-10 |
|
[ show close-approach data ]
Alternate Designations
Perihelion Year (est.) | New-Style Desig | Roman Numeral | Year/ Letter | 2015.9 | 335P/2016 A9 | | |
2009.1 | 335P/2008 Y2 | | |
|
|